When you browse on this site, cookies collect data to enhance your experience and personalize the content and advertising you see.
Visit our Privacy Policy to learn more. By continuing to use the site, you agree to this use of cookies and data.
  • In United Kingdom
  • List of Countries
  • For 7 days
  • Water Temperature
  • Weather Map
  • Weather Widgets
  • user-avatar
    Login

    Hourly Weather Bukowina Tatrzanska

    Today, 12 November, Tuesday

    Time Temperature Precipitation Wind Pressure Humidity
    00:00 +1°C° 0 mm 2 mps 683 mmHg 88%
    01:00 +1°C° 0 mm 2 mps 683 mmHg 88%
    02:00 +2°C° 0 mm 2 mps 682 mmHg 88%
    03:00 +2°C° 0 mm 2 mps 682 mmHg 88%
    04:00 +2°C° 0 mm 2 mps 682 mmHg 89%
    05:00 +2°C° 0 mm 2 mps 682 mmHg 88%
    06:00 +2°C° 0 mm 2 mps 682 mmHg 87%
    07:00 +3°C° 0 mm 2 mps 682 mmHg 85%
    08:00 +4°C° 0 mm 2 mps 682 mmHg 83%
    09:00 +5°C° 0 mm 2 mps 682 mmHg 81%
    10:00 +6°C° 0 mm 2 mps 682 mmHg 79%
    11:00 +7°C° 0 mm 2 mps 682 mmHg 78%
    12:00 +7°C° 0 mm 2 mps 682 mmHg 77%
    13:00 +8°C° 0 mm 2 mps 681 mmHg 77%
    14:00 +7°C° 0.1 mm 2 mps 681 mmHg 80%
    15:00 +6°C° 0.1 mm 2 mps 680 mmHg 84%
    16:00 +6°C° 0.1 mm 2 mps 679 mmHg 87%
    17:00 +6°C° 0.8 mm 2 mps 679 mmHg 88%
    18:00 +6°C° 0.8 mm 2 mps 679 mmHg 89%
    19:00 +6°C° 0.8 mm 2 mps 679 mmHg 90%
    20:00 +5°C° 0.3 mm 3 mps 679 mmHg 91%
    21:00 +5°C° 0.3 mm 3 mps 678 mmHg 91%
    22:00 +5°C° 0.3 mm 3 mps 678 mmHg 91%
    23:00 +5°C° 0.1 mm 3 mps 678 mmHg 92%

    Tomorrow, 13 November, Wednesday

    Time Temperature Precipitation Wind Pressure Humidity
    00:00 +5°C° 0.1 mm 3 mps 678 mmHg 92%
    01:00 +5°C° 0.1 mm 3 mps 678 mmHg 93%
    02:00 +7°C° 1 mm 2 mps 677 mmHg 94%
    03:00 +7°C° 1 mm 2 mps 677 mmHg 95%
    04:00 +7°C° 1 mm 2 mps 677 mmHg 96%
    05:00 +7°C° 1.6 mm 2 mps 677 mmHg 96%
    06:00 +7°C° 1.6 mm 2 mps 676 mmHg 97%
    07:00 +7°C° 1.6 mm 2 mps 676 mmHg 97%
    08:00 +8°C° 1.5 mm 3 mps 676 mmHg 95%
    09:00 +8°C° 1.5 mm 3 mps 676 mmHg 94%
    10:00 +8°C° 1.5 mm 4 mps 676 mmHg 93%
    11:00 +8°C° 0.2 mm 4 mps 676 mmHg 87%
    12:00 +10°C° 0.2 mm 4 mps 676 mmHg 81%
    13:00 +10°C° 0.2 mm 3 mps 676 mmHg 76%
    14:00 +9°C° 0 mm 3 mps 676 mmHg 80%
    15:00 +8°C° 0 mm 3 mps 675 mmHg 84%
    16:00 +7°C° 0 mm 3 mps 675 mmHg 89%
    17:00 +8°C° 0.4 mm 3 mps 675 mmHg 90%
    18:00 +8°C° 0.4 mm 3 mps 675 mmHg 92%
    19:00 +8°C° 0.4 mm 3 mps 675 mmHg 93%
    20:00 +8°C° 0.9 mm 3 mps 675 mmHg 93%
    21:00 +7°C° 0.9 mm 4 mps 675 mmHg 93%
    22:00 +7°C° 0.9 mm 4 mps 675 mmHg 92%
    23:00 +7°C° 0.7 mm 4 mps 676 mmHg 93%

    Day after tomorrow, 14 November, Thursday

    Time Temperature Precipitation Wind Pressure Humidity
    00:00 +8°C° 0.7 mm 3 mps 676 mmHg 93%
    01:00 +8°C° 0.7 mm 3 mps 677 mmHg 94%
    02:00 +8°C° 0 mm 2 mps 677 mmHg 94%
    03:00 +7°C° 0 mm 2 mps 677 mmHg 94%
    04:00 +7°C° 0 mm 2 mps 678 mmHg 95%
    05:00 +7°C° 0 mm 1 mps 678 mmHg 95%
    06:00 +7°C° 0 mm 1 mps 679 mmHg 95%
    07:00 +6°C° 0 mm 1 mps 679 mmHg 96%
    08:00 +7°C° 0 mm 1 mps 680 mmHg 91%
    09:00 +8°C° 0 mm 1 mps 680 mmHg 87%
    10:00 +9°C° 0 mm 1 mps 681 mmHg 83%
    11:00 +9°C° 0 mm 2 mps 681 mmHg 80%
    12:00 +9°C° 0 mm 2 mps 681 mmHg 78%
    13:00 +10°C° 0 mm 2 mps 681 mmHg 75%
    14:00 +9°C° 0 mm 2 mps 681 mmHg 80%
    15:00 +8°C° 0 mm 2 mps 681 mmHg 85%
    16:00 +8°C° 0 mm 1 mps 681 mmHg 90%
    17:00 +7°C° 0 mm 2 mps 681 mmHg 91%
    18:00 +7°C° 0 mm 2 mps 681 mmHg 93%
    19:00 +6°C° 0 mm 2 mps 681 mmHg 94%
    20:00 +6°C° 0 mm 2 mps 681 mmHg 94%
    21:00 +6°C° 0 mm 2 mps 681 mmHg 95%
    22:00 +6°C° 0 mm 2 mps 681 mmHg 95%
    23:00 +6°C° 0 mm 2 mps 681 mmHg 95%

    15 November, Friday

    Time Temperature Precipitation Wind Pressure Humidity
    00:00 +6°C° 0 mm 2 mps 681 mmHg 94%
    01:00 +6°C° 0 mm 2 mps 682 mmHg 94%
    02:00 +6°C° 0 mm 2 mps 682 mmHg 94%
    03:00 +6°C° 0 mm 2 mps 682 mmHg 94%
    04:00 +6°C° 0 mm 2 mps 682 mmHg 94%
    05:00 +6°C° 0 mm 2 mps 682 mmHg 94%
    06:00 +6°C° 0 mm 2 mps 682 mmHg 95%
    07:00 +6°C° 0 mm 2 mps 682 mmHg 95%
    08:00 +7°C° 0 mm 2 mps 683 mmHg 92%
    09:00 +8°C° 0 mm 3 mps 683 mmHg 88%
    10:00 +10°C° 0 mm 3 mps 683 mmHg 85%
    11:00 +10°C° 0 mm 3 mps 684 mmHg 82%
    12:00 +11°C° 0 mm 3 mps 684 mmHg 80%
    13:00 +11°C° 0 mm 4 mps 684 mmHg 77%
    14:00 +10°C° 0 mm 3 mps 683 mmHg 81%
    15:00 +9°C° 0 mm 3 mps 683 mmHg 86%
    16:00 +8°C° 0 mm 2 mps 683 mmHg 91%
    17:00 +8°C° 0 mm 2 mps 683 mmHg 91%
    18:00 +7°C° 0 mm 2 mps 683 mmHg 92%
    19:00 +7°C° 0 mm 2 mps 683 mmHg 93%
    20:00 +7°C° 0 mm 2 mps 684 mmHg 93%
    21:00 +7°C° 0 mm 3 mps 684 mmHg 93%
    22:00 +7°C° 0 mm 3 mps 684 mmHg 92%
    23:00 +7°C° 0 mm 3 mps 684 mmHg 92%

    16 November, Saturday

    Time Temperature Precipitation Wind Pressure Humidity
    00:00 +7°C° 0 mm 2 mps 684 mmHg 92%
    01:00 +7°C° 0 mm 2 mps 684 mmHg 92%
    02:00 +7°C° 0 mm 2 mps 684 mmHg 92%
    03:00 +7°C° 0 mm 2 mps 684 mmHg 91%
    04:00 +7°C° 0 mm 2 mps 684 mmHg 91%
    05:00 +7°C° 0 mm 2 mps 684 mmHg 92%
    06:00 +7°C° 0 mm 2 mps 684 mmHg 92%
    07:00 +6°C° 0 mm 2 mps 685 mmHg 93%
    08:00 +7°C° 0 mm 3 mps 685 mmHg 89%
    09:00 +8°C° 0 mm 3 mps 686 mmHg 85%
    10:00 +9°C° 0 mm 3 mps 686 mmHg 81%
    11:00 +10°C° 0 mm 3 mps 686 mmHg 80%
    12:00 +10°C° 0 mm 3 mps 686 mmHg 79%
    13:00 +10°C° 0 mm 2 mps 686 mmHg 79%
    14:00 +9°C° 0 mm 2 mps 686 mmHg 82%
    15:00 +9°C° 0 mm 2 mps 686 mmHg 85%
    16:00 +8°C° 0 mm 2 mps 686 mmHg 89%
    17:00 +7°C° 0 mm 2 mps 686 mmHg 89%
    18:00 +8°C° 0 mm 1 mps 686 mmHg 89%
    19:00 +8°C° 0 mm 1 mps 686 mmHg 89%
    20:00 +8°C° 0 mm 1 mps 686 mmHg 88%
    21:00 +8°C° 0 mm 1 mps 686 mmHg 87%
    22:00 +8°C° 0 mm 1 mps 686 mmHg 86%
    23:00 +8°C° 0 mm 1 mps 686 mmHg 86%

    17 November, Sunday

    Time Temperature Precipitation Wind Pressure Humidity
    00:00 +7°C° 0 mm 1 mps 686 mmHg 85%
    01:00 +7°C° 0 mm 1 mps 685 mmHg 85%
    02:00 +7°C° 0 mm 1 mps 685 mmHg 84%
    03:00 +7°C° 0 mm 1 mps 685 mmHg 84%
    04:00 +7°C° 0 mm 1 mps 684 mmHg 83%
    05:00 +6°C° 0 mm 2 mps 684 mmHg 83%
    06:00 +5°C° 0 mm 2 mps 684 mmHg 83%
    07:00 +5°C° 0 mm 2 mps 684 mmHg 82%
    08:00 +7°C° 0 mm 2 mps 684 mmHg 79%
    09:00 +8°C° 0 mm 2 mps 685 mmHg 76%
    10:00 +9°C° 0 mm 2 mps 685 mmHg 73%
    11:00 +9°C° 0 mm 2 mps 685 mmHg 72%
    12:00 +10°C° 0 mm 2 mps 684 mmHg 70%
    13:00 +10°C° 0 mm 2 mps 684 mmHg 69%
    14:00 +9°C° 0 mm 2 mps 684 mmHg 73%
    15:00 +8°C° 0 mm 2 mps 684 mmHg 78%
    16:00 +7°C° 0 mm 2 mps 683 mmHg 82%
    17:00 +7°C° 0 mm 2 mps 683 mmHg 82%
    18:00 +6°C° 0 mm 2 mps 683 mmHg 82%
    19:00 +6°C° 0 mm 2 mps 683 mmHg 82%
    20:00 +6°C° 0 mm 2 mps 683 mmHg 82%
    21:00 +5°C° 0 mm 2 mps 683 mmHg 81%
    22:00 +5°C° 0 mm 2 mps 683 mmHg 80%
    23:00 +5°C° 0 mm 2 mps 683 mmHg 81%
    Show more